OneWeb SL0503

operational
NORAD ID: 54121 Int'l Des: 2022-138 Owner: ONEWEBN Country: UK Constellation: oneweb
LEOCIRCULARPOLARONEWEB_TYPE

OneWeb SL0503について

説明を読み込み中...

リアルタイム位置

3D地球を読み込み中...

次回通過

高度履歴

Altitude vs Time

uPlot chart will show altitude changes over time

軌道要素

1 54121U 22138J 25308.19248009 .00000040 00000-0 68597-4 0 9993
2 54121 87.9242 349.7109 0001626 99.6890 260.4426 13.19725479147145
Epoch: Nov 4, 2025 • Age: 11 hours

現在のステータス

高度 1197.8 km
速度 7.26 km/s
衛星直下点 78.27°N, 125.29°W
打ち上げ日 Oct 22, 2022
運用期間 3 years
タイプ internet

技術仕様

分類 Payload
質量 148.00 kg
乾燥質量 140.00 kg
総質量 148.00 kg
長さ 1.30 m
直径 1.00 m
スパン 5.00 m
形状 Trapezoid+2 pan
製造者 ONEWUS
バスタイプ ARROW
フェーズステータス In Orbit
所有者/国 ONEWEBN/UK

大規模コンステレーション

Loading constellations...